Dew Point Data


Current

Temp 73.0 F. Dew Point 69.1 F.


Dew Point Comfort Scale

dewpoints

Date, Time Temperature Dew Point
Fri Aug 12 00:08:05 2022 69.0 F. 68.0 F.
Fri Aug 12 01:08:06 2022 69.0 F. 68.0 F.
Fri Aug 12 02:08:11 2022 69.0 F. 68.0 F.
Fri Aug 12 03:08:06 2022 70.0 F. 68.0 F.
Fri Aug 12 04:08:06 2022 70.0 F. 68.0 F.
Fri Aug 12 05:08:05 2022 69.0 F. 66.9 F.
Fri Aug 12 06:08:04 2022 68.0 F. 64.0 F.
Fri Aug 12 07:08:05 2022 66.0 F. 63.0 F.
Fri Aug 12 08:08:05 2022 66.0 F. 63.0 F.
Fri Aug 12 09:08:05 2022 66.0 F. 63.0 F.
Fri Aug 12 10:08:04 2022 66.0 F. 63.0 F.
Fri Aug 12 11:08:04 2022 66.0 F. 63.0 F.
Fri Aug 12 12:08:05 2022 66.0 F. 63.0 F.
Fri Aug 12 13:08:04 2022 66.0 F. 63.0 F.
Fri Aug 12 14:08:05 2022 80.0 F. 60.1 F.
Fri Aug 12 15:08:05 2022 81.0 F. 61.0 F.
Fri Aug 12 16:08:05 2022 81.0 F. 61.0 F.
Fri Aug 12 17:08:05 2022 81.0 F. 61.0 F.
Fri Aug 12 18:08:05 2022 81.0 F. 60.1 F.
Fri Aug 12 19:08:04 2022 81.0 F. 60.1 F.
Fri Aug 12 20:08:05 2022 77.0 F. 62.1 F.
Fri Aug 12 21:08:05 2022 69.0 F. 63.0 F.
Fri Aug 12 22:08:06 2022 69.0 F. 63.0 F.
Fri Aug 12 23:08:05 2022 69.0 F. 63.0 F.
Sat Aug 13 00:08:04 2022 63.0 F. 61.0 F.
Sat Aug 13 01:08:04 2022 63.0 F. 61.0 F.
Sat Aug 13 02:08:05 2022 63.0 F. 61.0 F.
Sat Aug 13 03:08:04 2022 63.0 F. 61.0 F.
Sat Aug 13 04:08:07 2022 63.0 F. 61.0 F.
Sat Aug 13 05:08:05 2022 59.0 F. 59.0 F.
Sat Aug 13 06:08:04 2022 59.0 F. 59.0 F.
Sat Aug 13 07:08:06 2022 59.0 F. 59.0 F.
Sat Aug 13 08:08:04 2022 59.0 F. 59.0 F.
Sat Aug 13 09:08:05 2022 65.0 F. 63.0 F.
Sat Aug 13 10:08:04 2022 65.0 F. 63.0 F.
Sat Aug 13 11:08:06 2022 65.0 F. 63.0 F.
Sat Aug 13 12:08:05 2022 65.0 F. 63.0 F.
Sat Aug 13 13:08:05 2022 79.0 F. 61.0 F.
Sat Aug 13 14:08:05 2022 81.0 F. 62.1 F.
Sat Aug 13 15:08:06 2022 81.0 F. 62.1 F.
Sat Aug 13 16:08:05 2022 81.0 F. 62.1 F.
Sat Aug 13 17:08:05 2022 83.0 F. 61.0 F.
Sat Aug 13 18:08:04 2022 83.0 F. 61.0 F.
Sat Aug 13 19:08:05 2022 83.0 F. 61.0 F.
Sat Aug 13 20:08:05 2022 80.0 F. 62.1 F.
Sat Aug 13 21:08:05 2022 80.0 F. 62.1 F.
Sat Aug 13 22:08:04 2022 70.0 F. 64.9 F.
Sat Aug 13 23:08:04 2022 70.0 F. 64.9 F.
Sun Aug 14 00:08:06 2022 70.0 F. 66.0 F.
Sun Aug 14 01:08:05 2022 70.0 F. 66.0 F.
Sun Aug 14 02:08:04 2022 70.0 F. 66.0 F.
Sun Aug 14 03:08:05 2022 70.0 F. 66.0 F.
Sun Aug 14 04:08:06 2022 70.0 F. 66.0 F.
Sun Aug 14 05:08:05 2022 70.0 F. 66.0 F.
Sun Aug 14 06:08:07 2022 70.0 F. 66.0 F.
Sun Aug 14 07:08:07 2022 70.0 F. 66.0 F.
Sun Aug 14 08:08:06 2022 70.0 F. 66.0 F.
Sun Aug 14 09:08:07 2022 70.0 F. 66.0 F.
Sun Aug 14 10:08:06 2022 70.0 F. 66.0 F.
Sun Aug 14 11:08:07 2022 70.0 F. 66.0 F.
Sun Aug 14 12:08:05 2022 70.0 F. 66.0 F.
Sun Aug 14 13:08:06 2022 70.0 F. 66.0 F.
Sun Aug 14 14:08:04 2022 85.0 F. 72.0 F.
Sun Aug 14 15:08:06 2022 85.0 F. 72.0 F.
Sun Aug 14 16:08:04 2022 85.0 F. 72.0 F.
Sun Aug 14 17:08:04 2022 85.0 F. 72.0 F.
Sun Aug 14 18:08:07 2022 85.0 F. 72.0 F.
Sun Aug 14 19:08:05 2022 83.0 F. 72.0 F.
Sun Aug 14 20:08:05 2022 83.0 F. 72.0 F.
Sun Aug 14 21:08:05 2022 83.0 F. 72.0 F.
Sun Aug 14 22:08:04 2022 83.0 F. 72.0 F.
Sun Aug 14 23:08:04 2022 83.0 F. 72.0 F.
Mon Aug 15 00:08:05 2022 73.0 F. 69.1 F.